Weather Service Report


793 
ASUS43 KTOP 281308
RWRKS 

WEATHER ROUNDUP FOR KANSAS
NATIONAL WEATHER SERVICE GOODLAND KS
800 AM CDT MON JUL 28 2014

NOTE:  "FAIR" INDICATES FEW OR NO CLOUDS BELOW 12,000 FEET WITH NO
SIGNIFICANT WEATHER AND/OR OBSTRUCTIONS TO VISIBILITY.

KSZ001>006-013>018-027>032-041>047-281400-
NORTHWEST KANSAS
  
CITY           SKY/WX    TMP DP  RH WIND       PRES   REMARKS
GOODLAND       MOSUNNY   67  51  56 SE7       30.33R                  
HAYS           MOSUNNY   64  55  72 NE7       30.31R                  
HILL CITY      SUNNY     63  57  81 E6        30.32R                  
RUSSELL        MOSUNNY   63  57  81 MISG      30.29R                  
$$

KSZ061>065-074>080-084>089-281400-
SOUTHWEST KANSAS
  
CITY           SKY/WX    TMP DP  RH WIND       PRES   REMARKS
DODGE CITY     CLOUDY    68  58  70 SW7       30.35R                  
ELKHART          N/A     62  57  83 SE12        N/A                   
GARDEN CITY    LGT RAIN  68  60  75 SE7       30.33R                  
GREAT BEND     CLOUDY    64  57  77 CALM      30.29R                  
LIBERAL        CLOUDY    70  57  64 S6        30.36R                  
PRATT          MOSUNNY   64  54  68 NE3       30.30R                  
$$

KSZ066>073-081>083-090>101-281400-
SOUTHEAST KANSAS
  
CITY           SKY/WX    TMP DP  RH WIND       PRES   REMARKS
CHANUTE        MOSUNNY   66  59  78 N6        30.21R                  
COFFEYVILLE    SUNNY     66  61  84 NW3       30.20R HAZE             
HUTCHINSON     SUNNY     66  57  72 N6        30.27R                  
MEDICINE LODGE   N/A     68  61  78 CALM      30.27R                  
NEWTON         MOSUNNY   64  54  68 N7        30.29R                  
PARSONS        MOSUNNY   66  60  81 N3        30.21R                  
WICHITA INTL   MOSUNNY   70  58  65 NE6       30.24R                  
WICHITA JABRA  SUNNY     67  59  75 NE6       30.25R                  
WICHITA MCCONL SUNNY     67  61  82 NE6       30.25R                  
WINFIELD       SUNNY     67  62  84 N3        30.24R                  
$$

KSZ007>012-019>026-033>040-048>060-102>105-281400-
NORTHEAST KANSAS
  
CITY           SKY/WX    TMP DP  RH WIND       PRES   REMARKS
CONCORDIA      SUNNY     64  57  78 N6        30.28R                  
EMPORIA        MOSUNNY   66  58  75 N8        30.23R                  
LAWRENCE       SUNNY     64  59  83 NW8       30.22R                  
MANHATTAN      MOSUNNY   65  58  78 NE6       30.25R                  
MARYSVILLE     SUNNY     59  57  94 NW6       30.26R                  
OLATHE IND     SUNNY     63  59  87 N10       30.21R                  
OLATHE EXE     SUNNY     65  58  78 N8        30.20R                  
SALINA         MOSUNNY   67  57  70 NE7       30.28R                  
TOPEKA BILLARD SUNNY     67  58  72 N7        30.23R                  
TOPEKA FORBES  SUNNY     66  57  72 N7        30.22R                  
$$

Return to Home page


Western Regional Climate Center, wrcc@dri.edu